Year,Month,Day,Hour,Minute,Value (Times are PST for temperature in C)
2015,05,30,00,00,15.70
2015,05,30,00,01,15.70
2015,05,30,00,02,15.70
2015,05,30,00,03,15.70
2015,05,30,00,04,15.60
2015,05,30,00,05,15.60
2015,05,30,00,06,15.60
2015,05,30,00,07,15.60
2015,05,30,00,08,15.60
2015,05,30,00,09,15.60
2015,05,30,00,10,15.60
2015,05,30,00,11,15.60
2015,05,30,00,12,15.50
2015,05,30,00,13,15.50
2015,05,30,00,14,15.50
2015,05,30,00,15,15.50
2015,05,30,00,16,15.50
2015,05,30,00,17,15.50
2015,05,30,00,18,15.50
2015,05,30,00,19,15.50
2015,05,30,00,20,15.40
2015,05,30,00,21,15.40
2015,05,30,00,22,15.40
2015,05,30,00,23,15.30
2015,05,30,00,24,15.30
2015,05,30,00,25,15.30
2015,05,30,00,26,15.30
2015,05,30,00,27,15.30
2015,05,30,00,28,15.30
2015,05,30,00,29,15.30
2015,05,30,00,30,15.30
2015,05,30,00,31,15.30
2015,05,30,00,32,15.30
2015,05,30,00,33,15.30
2015,05,30,00,34,15.30
2015,05,30,00,35,15.20
2015,05,30,00,36,15.20
2015,05,30,00,37,15.20
2015,05,30,00,38,15.20
2015,05,30,00,39,15.10
2015,05,30,00,40,15.10
2015,05,30,00,41,15.10
2015,05,30,00,42,15.00
2015,05,30,00,43,15.00
2015,05,30,00,44,15.00
2015,05,30,00,45,14.90
2015,05,30,00,46,14.90
2015,05,30,00,47,14.90
2015,05,30,00,48,14.80
2015,05,30,00,49,14.80
2015,05,30,00,50,14.80
2015,05,30,00,51,14.70
2015,05,30,00,52,14.70
2015,05,30,00,53,14.70
2015,05,30,00,54,14.60
2015,05,30,00,55,14.60
2015,05,30,00,56,14.60
2015,05,30,00,57,14.60
2015,05,30,00,58,14.60
2015,05,30,00,59,14.50
2015,05,30,01,00,14.50
2015,05,30,01,01,14.50
2015,05,30,01,02,14.50
2015,05,30,01,03,14.40
2015,05,30,01,04,14.40
2015,05,30,01,05,14.40
2015,05,30,01,06,14.40
2015,05,30,01,07,14.40
2015,05,30,01,08,14.30
2015,05,30,01,09,14.30
2015,05,30,01,10,14.30
2015,05,30,01,11,14.20
2015,05,30,01,12,14.20
2015,05,30,01,13,14.20
2015,05,30,01,14,14.20
2015,05,30,01,15,14.20
2015,05,30,01,16,14.10
2015,05,30,01,17,14.10
2015,05,30,01,18,14.00
2015,05,30,01,19,14.00
2015,05,30,01,20,14.00
2015,05,30,01,21,13.90
2015,05,30,01,22,13.90
2015,05,30,01,23,13.90
2015,05,30,01,24,13.80
2015,05,30,01,25,13.80
2015,05,30,01,26,13.80
2015,05,30,01,27,13.70
2015,05,30,01,28,13.70
2015,05,30,01,29,13.70
2015,05,30,01,30,13.70
2015,05,30,01,31,13.70
2015,05,30,01,32,13.80
2015,05,30,01,33,13.80
2015,05,30,01,34,13.80
2015,05,30,01,35,13.90
2015,05,30,01,36,13.90
2015,05,30,01,37,13.90
2015,05,30,01,38,13.90
2015,05,30,01,39,13.90
2015,05,30,01,40,13.90
2015,05,30,01,41,14.00
2015,05,30,01,42,14.00
2015,05,30,01,43,14.00
2015,05,30,01,44,13.90
2015,05,30,01,45,13.90
2015,05,30,01,46,13.90
2015,05,30,01,47,13.90
2015,05,30,01,48,13.90
2015,05,30,01,49,13.90
2015,05,30,01,50,13.80
2015,05,30,01,51,13.80
2015,05,30,01,52,13.70
2015,05,30,01,53,13.70
2015,05,30,01,54,13.70
2015,05,30,01,55,13.70
2015,05,30,01,56,13.70
2015,05,30,01,57,13.70
2015,05,30,01,58,13.70
2015,05,30,01,59,13.60
2015,05,30,02,00,13.60
2015,05,30,02,01,13.60
2015,05,30,02,02,13.50
2015,05,30,02,03,13.50
2015,05,30,02,04,13.50
2015,05,30,02,05,13.40
2015,05,30,02,06,13.40
2015,05,30,02,07,13.40
2015,05,30,02,08,13.40
2015,05,30,02,09,13.40
2015,05,30,02,10,13.40
2015,05,30,02,11,13.40
2015,05,30,02,12,13.40
2015,05,30,02,13,13.40
2015,05,30,02,14,13.40
2015,05,30,02,15,13.30
2015,05,30,02,16,13.30
2015,05,30,02,17,13.30
2015,05,30,02,18,13.30
2015,05,30,02,19,13.30
2015,05,30,02,20,13.30
2015,05,30,02,21,13.30
2015,05,30,02,22,13.30
2015,05,30,02,23,13.30
2015,05,30,02,24,13.30
2015,05,30,02,25,13.30
2015,05,30,02,26,13.30
2015,05,30,02,27,13.30
2015,05,30,02,28,13.30
2015,05,30,02,29,13.30
2015,05,30,02,30,13.30
2015,05,30,02,31,13.30
2015,05,30,02,32,13.30
2015,05,30,02,33,13.30
2015,05,30,02,34,13.30
2015,05,30,02,35,13.30
2015,05,30,02,36,13.30
2015,05,30,02,37,13.30
2015,05,30,02,38,13.30
2015,05,30,02,39,13.30
2015,05,30,02,40,13.20
2015,05,30,02,41,13.20
2015,05,30,02,42,13.20
2015,05,30,02,43,13.20
2015,05,30,02,44,13.20
2015,05,30,02,45,13.20
2015,05,30,02,46,13.20
2015,05,30,02,47,13.10
2015,05,30,02,48,13.10
2015,05,30,02,49,13.10
2015,05,30,02,50,13.00
2015,05,30,02,51,13.00
2015,05,30,02,52,13.00
2015,05,30,02,53,12.90
2015,05,30,02,54,12.90
2015,05,30,02,55,12.90
2015,05,30,02,56,12.80
2015,05,30,02,57,12.80
2015,05,30,02,58,12.80
2015,05,30,02,59,12.80
2015,05,30,03,00,12.80
2015,05,30,03,01,12.80
2015,05,30,03,02,12.80
2015,05,30,03,03,12.80
2015,05,30,03,04,12.80
2015,05,30,03,05,12.80
2015,05,30,03,06,12.70
2015,05,30,03,07,12.70
2015,05,30,03,08,12.60
2015,05,30,03,09,12.60
2015,05,30,03,10,12.50
2015,05,30,03,11,12.50
2015,05,30,03,12,12.50
2015,05,30,03,13,12.50
2015,05,30,03,14,12.40
2015,05,30,03,15,12.40
2015,05,30,03,16,12.40
2015,05,30,03,17,12.40
2015,05,30,03,18,12.40
2015,05,30,03,19,12.40
2015,05,30,03,20,12.40
2015,05,30,03,21,12.40
2015,05,30,03,22,12.40
2015,05,30,03,23,12.40
2015,05,30,03,24,12.40
2015,05,30,03,25,12.40
2015,05,30,03,26,12.40
2015,05,30,03,27,12.40
2015,05,30,03,28,12.40
2015,05,30,03,29,12.40
2015,05,30,03,30,12.30
2015,05,30,03,31,12.30
2015,05,30,03,32,12.30
2015,05,30,03,33,12.30
2015,05,30,03,34,12.30
2015,05,30,03,35,12.30
2015,05,30,03,36,12.30
2015,05,30,03,37,12.20
2015,05,30,03,38,12.20
2015,05,30,03,39,12.20
2015,05,30,03,40,12.10
2015,05,30,03,41,12.10
2015,05,30,03,42,12.10
2015,05,30,03,43,12.10
2015,05,30,03,44,12.10
2015,05,30,03,45,12.00
2015,05,30,03,46,12.00
2015,05,30,03,47,12.00
2015,05,30,03,48,12.00
2015,05,30,03,49,11.90
2015,05,30,03,50,11.90
2015,05,30,03,51,11.90
2015,05,30,03,52,11.90
2015,05,30,03,53,11.80
2015,05,30,03,54,11.80
2015,05,30,03,55,11.80
2015,05,30,03,56,11.80
2015,05,30,03,57,11.80
2015,05,30,03,58,11.80
2015,05,30,03,59,11.80
2015,05,30,04,00,11.70
2015,05,30,04,01,11.70
2015,05,30,04,02,11.70
2015,05,30,04,03,11.60
2015,05,30,04,04,11.60
2015,05,30,04,05,11.60
2015,05,30,04,06,11.60
2015,05,30,04,07,11.60
2015,05,30,04,08,11.60
2015,05,30,04,09,11.60
2015,05,30,04,10,11.60
2015,05,30,04,11,11.60
2015,05,30,04,12,11.60
2015,05,30,04,13,11.60
2015,05,30,04,14,11.60
2015,05,30,04,15,11.60
2015,05,30,04,16,11.60
2015,05,30,04,17,11.60
2015,05,30,04,18,11.60
2015,05,30,04,19,11.60
2015,05,30,04,20,11.60
2015,05,30,04,21,11.60
2015,05,30,04,22,11.60
2015,05,30,04,23,11.40
2015,05,30,04,24,11.40
2015,05,30,04,25,11.40
2015,05,30,04,26,11.40
2015,05,30,04,27,11.40
2015,05,30,04,28,11.40
2015,05,30,04,29,11.40
2015,05,30,04,30,11.30
2015,05,30,04,31,11.30
2015,05,30,04,32,11.30
2015,05,30,04,33,11.30
2015,05,30,04,34,11.20
2015,05,30,04,35,11.20
2015,05,30,04,36,11.20
2015,05,30,04,37,11.20
2015,05,30,04,38,11.20
2015,05,30,04,39,11.20
2015,05,30,04,40,11.20
2015,05,30,04,41,11.20
2015,05,30,04,42,11.10
2015,05,30,04,43,11.10
2015,05,30,04,44,11.10
2015,05,30,04,45,11.10
2015,05,30,04,46,11.10
2015,05,30,04,47,11.10
2015,05,30,04,48,11.10
2015,05,30,04,49,11.10
2015,05,30,04,50,11.10
2015,05,30,04,51,11.10
2015,05,30,04,52,11.10
2015,05,30,04,53,11.10
2015,05,30,04,54,11.10
2015,05,30,04,55,11.00
2015,05,30,04,56,10.90
2015,05,30,04,57,10.90
2015,05,30,04,58,10.90
2015,05,30,04,59,10.90
2015,05,30,05,00,10.90
2015,05,30,05,01,10.90
2015,05,30,05,02,10.90
2015,05,30,05,03,10.80
2015,05,30,05,04,10.80
2015,05,30,05,05,10.80
2015,05,30,05,06,10.80
2015,05,30,05,07,10.70
2015,05,30,05,08,10.70
2015,05,30,05,09,10.70
2015,05,30,05,10,10.70
2015,05,30,05,11,10.70
2015,05,30,05,12,10.60
2015,05,30,05,13,10.60
2015,05,30,05,14,10.60
2015,05,30,05,15,10.60
2015,05,30,05,16,10.60
2015,05,30,05,17,10.60
2015,05,30,05,18,10.60
2015,05,30,05,19,10.60
2015,05,30,05,20,10.60
2015,05,30,05,21,10.60
2015,05,30,05,22,10.60
2015,05,30,05,23,10.60
2015,05,30,05,24,10.60
2015,05,30,05,25,10.60
2015,05,30,05,26,10.60
2015,05,30,05,27,10.60
2015,05,30,05,28,10.60
2015,05,30,05,29,10.60
2015,05,30,05,30,10.60
2015,05,30,05,31,10.60
2015,05,30,05,32,10.60
2015,05,30,05,33,10.60
2015,05,30,05,34,10.60
2015,05,30,05,35,10.60
2015,05,30,05,36,10.60
2015,05,30,05,37,10.60
2015,05,30,05,38,10.70
2015,05,30,05,39,10.70
2015,05,30,05,40,10.70
2015,05,30,05,41,10.70
2015,05,30,05,42,10.70
2015,05,30,05,43,10.70
2015,05,30,05,44,10.70
2015,05,30,05,45,10.70
2015,05,30,05,46,10.80
2015,05,30,05,47,10.80
2015,05,30,05,48,10.80
2015,05,30,05,49,10.80
2015,05,30,05,50,10.80
2015,05,30,05,51,10.80
2015,05,30,05,52,10.80
2015,05,30,05,53,10.80
2015,05,30,05,54,10.80
2015,05,30,05,55,10.80
2015,05,30,05,56,10.80
2015,05,30,05,57,10.80
2015,05,30,05,58,10.80
2015,05,30,05,59,10.80
2015,05,30,06,00,10.80
2015,05,30,06,01,10.80
2015,05,30,06,02,10.80
2015,05,30,06,03,10.80
2015,05,30,06,04,10.80
2015,05,30,06,05,10.80
2015,05,30,06,06,10.80
2015,05,30,06,07,10.80
2015,05,30,06,08,10.80
2015,05,30,06,09,10.80
2015,05,30,06,10,10.80
2015,05,30,06,11,10.80
2015,05,30,06,12,10.80
2015,05,30,06,13,10.80
2015,05,30,06,14,10.80
2015,05,30,06,15,10.80
2015,05,30,06,16,10.80
2015,05,30,06,17,10.80
2015,05,30,06,18,10.80
2015,05,30,06,19,10.80
2015,05,30,06,20,10.80
2015,05,30,06,21,10.80
2015,05,30,06,22,10.90
2015,05,30,06,23,10.90
2015,05,30,06,24,10.90
2015,05,30,06,25,10.90
2015,05,30,06,26,10.90
2015,05,30,06,27,10.90
2015,05,30,06,28,11.00
2015,05,30,06,29,11.10
2015,05,30,06,30,11.10
2015,05,30,06,31,11.10
2015,05,30,06,32,11.10
2015,05,30,06,33,11.20
2015,05,30,06,34,11.20
2015,05,30,06,35,11.30
2015,05,30,06,36,11.30
2015,05,30,06,37,11.30
2015,05,30,06,38,11.40
2015,05,30,06,39,11.40
2015,05,30,06,40,11.40
2015,05,30,06,41,11.50
2015,05,30,06,42,11.60
2015,05,30,06,43,11.60
2015,05,30,06,44,11.60
2015,05,30,06,45,11.60
2015,05,30,06,46,11.60
2015,05,30,06,47,11.60
2015,05,30,06,48,11.70
2015,05,30,06,49,11.70
2015,05,30,06,50,11.70
2015,05,30,06,51,11.80
2015,05,30,06,52,11.80
2015,05,30,06,53,11.80
2015,05,30,06,54,11.80
2015,05,30,06,55,11.80
2015,05,30,06,56,11.80
2015,05,30,06,57,11.80
2015,05,30,06,58,11.80
2015,05,30,06,59,11.80
2015,05,30,07,00,11.90
2015,05,30,07,01,11.90
2015,05,30,07,02,12.00
2015,05,30,07,03,12.00
2015,05,30,07,04,12.10
2015,05,30,07,05,12.20
2015,05,30,07,06,12.30
2015,05,30,07,07,12.50
2015,05,30,07,08,12.50
2015,05,30,07,09,12.60
2015,05,30,07,10,12.70
2015,05,30,07,11,12.80
2015,05,30,07,12,12.80
2015,05,30,07,13,12.80
2015,05,30,07,14,12.80
2015,05,30,07,15,12.80
2015,05,30,07,16,12.80
2015,05,30,07,17,12.80
2015,05,30,07,18,12.80
2015,05,30,07,19,12.80
2015,05,30,07,20,12.80
2015,05,30,07,21,12.80
2015,05,30,07,22,12.80
2015,05,30,07,23,12.90
2015,05,30,07,24,12.90
2015,05,30,07,25,12.90
2015,05,30,07,26,13.00
2015,05,30,07,27,13.00
2015,05,30,07,28,13.10
2015,05,30,07,29,13.10
2015,05,30,07,30,13.20
2015,05,30,07,31,13.30
2015,05,30,07,32,13.40
2015,05,30,07,33,13.40
2015,05,30,07,34,13.40
2015,05,30,07,35,13.50
2015,05,30,07,36,13.50
2015,05,30,07,37,13.60
2015,05,30,07,38,13.60
2015,05,30,07,39,13.60
2015,05,30,07,40,13.70
2015,05,30,07,41,13.70
2015,05,30,07,42,13.70
2015,05,30,07,43,13.60
2015,05,30,07,44,13.50
2015,05,30,07,45,13.50
2015,05,30,07,46,13.50
2015,05,30,07,47,13.50
2015,05,30,07,48,13.60
2015,05,30,07,49,13.60
2015,05,30,07,50,13.60
2015,05,30,07,51,13.70
2015,05,30,07,52,13.70
2015,05,30,07,53,13.70
2015,05,30,07,54,13.80
2015,05,30,07,55,13.80
2015,05,30,07,56,13.90
2015,05,30,07,57,14.00
2015,05,30,07,58,14.10
2015,05,30,07,59,14.20
2015,05,30,08,00,14.20
2015,05,30,08,01,14.20
2015,05,30,08,02,14.10
2015,05,30,08,03,14.00
2015,05,30,08,04,14.00
2015,05,30,08,05,13.90
2015,05,30,08,06,13.90
2015,05,30,08,07,13.80
2015,05,30,08,08,13.80
2015,05,30,08,09,13.70
2015,05,30,08,10,13.70
2015,05,30,08,11,13.70
2015,05,30,08,12,13.70
2015,05,30,08,13,13.70
2015,05,30,08,14,13.70
2015,05,30,08,15,13.70
2015,05,30,08,16,13.70
2015,05,30,08,17,13.70
2015,05,30,08,18,13.60
2015,05,30,08,19,13.60
2015,05,30,08,20,13.60
2015,05,30,08,21,13.60
2015,05,30,08,22,13.70
2015,05,30,08,23,13.70
2015,05,30,08,24,13.70
2015,05,30,08,25,13.70
2015,05,30,08,26,13.70
2015,05,30,08,27,13.70
2015,05,30,08,28,13.70
2015,05,30,08,29,13.70
2015,05,30,08,30,13.70
2015,05,30,08,31,13.70
2015,05,30,08,32,13.70
2015,05,30,08,33,13.60
2015,05,30,08,34,13.70
2015,05,30,08,35,13.60
2015,05,30,08,36,13.60
2015,05,30,08,37,13.50
2015,05,30,08,38,13.50
2015,05,30,08,39,13.50
2015,05,30,08,40,13.60
2015,05,30,08,41,13.70
2015,05,30,08,42,13.70
2015,05,30,08,43,13.70
2015,05,30,08,44,13.90
2015,05,30,08,45,14.00
2015,05,30,08,46,14.10
2015,05,30,08,47,14.20
2015,05,30,08,48,14.20
2015,05,30,08,49,14.30
2015,05,30,08,50,14.30
2015,05,30,08,51,14.40
2015,05,30,08,52,14.30
2015,05,30,08,53,14.40
2015,05,30,08,54,14.40
2015,05,30,08,55,14.40
2015,05,30,08,56,14.40
2015,05,30,08,57,14.40
2015,05,30,08,58,14.40
2015,05,30,08,59,14.50
2015,05,30,09,00,14.50
2015,05,30,09,01,14.60
2015,05,30,09,02,14.60
2015,05,30,09,03,14.70
2015,05,30,09,04,14.80
2015,05,30,09,05,14.90
2015,05,30,09,06,15.00
2015,05,30,09,07,15.00
2015,05,30,09,08,15.00
2015,05,30,09,09,15.00
2015,05,30,09,10,15.10
2015,05,30,09,11,15.20
2015,05,30,09,12,15.20
2015,05,30,09,13,15.20
2015,05,30,09,14,15.20
2015,05,30,09,15,15.20
2015,05,30,09,16,15.30
2015,05,30,09,17,15.30
2015,05,30,09,18,15.30
2015,05,30,09,19,15.30
2015,05,30,09,20,15.30
2015,05,30,09,21,15.20
2015,05,30,09,22,15.30
2015,05,30,09,23,15.30
2015,05,30,09,24,15.30
2015,05,30,09,25,15.30
2015,05,30,09,26,15.30
2015,05,30,09,27,15.30
2015,05,30,09,28,15.30
2015,05,30,09,29,15.30
2015,05,30,09,30,15.30
2015,05,30,09,31,15.30
2015,05,30,09,32,15.30
2015,05,30,09,33,15.40
2015,05,30,09,34,15.50
2015,05,30,09,35,15.50
2015,05,30,09,36,15.50
2015,05,30,09,37,15.60
2015,05,30,09,38,15.70
2015,05,30,09,39,15.70
2015,05,30,09,40,15.60
2015,05,30,09,41,15.40
2015,05,30,09,42,15.00
2015,05,30,09,43,14.70
2015,05,30,09,44,14.50
2015,05,30,09,45,14.50
2015,05,30,09,46,14.40
2015,05,30,09,47,14.40
2015,05,30,09,48,14.40
2015,05,30,09,49,14.50
2015,05,30,09,50,14.50
2015,05,30,09,51,14.40
2015,05,30,09,52,14.40
2015,05,30,09,53,14.20
2015,05,30,09,54,14.20
2015,05,30,09,55,14.00
2015,05,30,09,56,13.90
2015,05,30,09,57,13.80
2015,05,30,09,58,13.90
2015,05,30,09,59,14.10
2015,05,30,10,00,14.10
2015,05,30,10,01,14.10
2015,05,30,10,02,14.10
2015,05,30,10,03,14.10
2015,05,30,10,04,14.10
2015,05,30,10,05,14.10
2015,05,30,10,06,14.20
2015,05,30,10,07,14.20
2015,05,30,10,08,14.30
2015,05,30,10,09,14.50
2015,05,30,10,10,14.60
2015,05,30,10,11,14.80
2015,05,30,10,12,14.90
2015,05,30,10,13,14.90
2015,05,30,10,14,14.90
2015,05,30,10,15,14.90
2015,05,30,10,16,14.80
2015,05,30,10,17,14.80
2015,05,30,10,18,14.90
2015,05,30,10,19,15.00
2015,05,30,10,20,15.00
2015,05,30,10,21,15.00
2015,05,30,10,22,15.00
2015,05,30,10,23,15.00
2015,05,30,10,24,15.00
2015,05,30,10,25,15.00
2015,05,30,10,26,15.00
2015,05,30,10,27,15.00
2015,05,30,10,28,14.90
2015,05,30,10,29,15.00
2015,05,30,10,30,15.10
2015,05,30,10,31,15.20
2015,05,30,10,32,15.30
2015,05,30,10,33,15.40
2015,05,30,10,34,15.40
2015,05,30,10,35,15.30
2015,05,30,10,36,15.30
2015,05,30,10,37,15.30
2015,05,30,10,38,15.30
2015,05,30,10,39,15.30
2015,05,30,10,40,15.20
2015,05,30,10,41,15.20
2015,05,30,10,42,15.30
2015,05,30,10,43,15.40
2015,05,30,10,44,15.50
2015,05,30,10,45,15.50
2015,05,30,10,46,15.40
2015,05,30,10,47,15.30
2015,05,30,10,48,15.20
2015,05,30,10,49,15.20
2015,05,30,10,50,15.20
2015,05,30,10,51,15.30
2015,05,30,10,52,15.30
2015,05,30,10,53,15.40
2015,05,30,10,54,15.50
2015,05,30,10,55,15.60
2015,05,30,10,56,15.50
2015,05,30,10,57,15.50
2015,05,30,10,58,15.40
2015,05,30,10,59,15.30
2015,05,30,11,00,15.20
2015,05,30,11,01,15.20
2015,05,30,11,02,15.20
2015,05,30,11,03,15.30
2015,05,30,11,04,15.30
2015,05,30,11,05,15.40
2015,05,30,11,06,15.50
2015,05,30,11,07,15.70
2015,05,30,11,08,15.70
2015,05,30,11,09,15.80
2015,05,30,11,10,15.90
2015,05,30,11,11,16.10
2015,05,30,11,12,16.30
2015,05,30,11,13,16.40
2015,05,30,11,14,16.40
2015,05,30,11,15,16.40
2015,05,30,11,16,16.40
2015,05,30,11,17,16.40
2015,05,30,11,18,16.40
2015,05,30,11,19,16.40
2015,05,30,11,20,16.40
2015,05,30,11,21,16.40
2015,05,30,11,22,16.50
2015,05,30,11,23,16.60
2015,05,30,11,24,16.60
2015,05,30,11,25,16.60
2015,05,30,11,26,16.70
2015,05,30,11,27,16.80
2015,05,30,11,28,17.00
2015,05,30,11,29,17.00
2015,05,30,11,30,17.00
2015,05,30,11,31,17.00
2015,05,30,11,32,17.00
2015,05,30,11,33,17.00
2015,05,30,11,34,17.10
2015,05,30,11,35,17.10
2015,05,30,11,36,17.10
2015,05,30,11,37,17.00
2015,05,30,11,38,17.00
2015,05,30,11,39,16.90
2015,05,30,11,40,16.90
2015,05,30,11,41,16.80
2015,05,30,11,42,16.70
2015,05,30,11,43,16.80
2015,05,30,11,44,16.80
2015,05,30,11,45,16.80
2015,05,30,11,46,16.90
2015,05,30,11,47,16.90
2015,05,30,11,48,16.80
2015,05,30,11,49,16.60
2015,05,30,11,50,16.40
2015,05,30,11,51,16.30
2015,05,30,11,52,16.20
2015,05,30,11,53,16.10
2015,05,30,11,54,16.10
2015,05,30,11,55,16.10
2015,05,30,11,56,16.00
2015,05,30,11,57,15.90
2015,05,30,11,58,15.80
2015,05,30,11,59,15.80
2015,05,30,12,00,15.80
2015,05,30,12,01,15.80
2015,05,30,12,02,15.70
2015,05,30,12,03,15.70
2015,05,30,12,04,15.60
2015,05,30,12,05,15.70
2015,05,30,12,06,15.70
2015,05,30,12,07,15.70
2015,05,30,12,08,15.70
2015,05,30,12,09,15.70
2015,05,30,12,10,15.70
2015,05,30,12,11,15.70
2015,05,30,12,12,15.70
2015,05,30,12,13,15.80
2015,05,30,12,14,15.60
2015,05,30,12,15,15.60
2015,05,30,12,16,15.60
2015,05,30,12,17,15.60
2015,05,30,12,18,15.50
2015,05,30,12,19,15.50
2015,05,30,12,20,15.60
2015,05,30,12,21,15.50
2015,05,30,12,22,15.50
2015,05,30,12,23,15.60
2015,05,30,12,24,15.80
2015,05,30,12,25,15.80
2015,05,30,12,26,15.80
2015,05,30,12,27,15.80
2015,05,30,12,28,15.80
2015,05,30,12,29,16.00
2015,05,30,12,30,16.10
2015,05,30,12,31,16.30
2015,05,30,12,32,16.40
2015,05,30,12,33,16.60
2015,05,30,12,34,16.70
2015,05,30,12,35,16.70
2015,05,30,12,36,16.70
2015,05,30,12,37,16.90
2015,05,30,12,38,17.00
2015,05,30,12,39,17.10
2015,05,30,12,40,17.00
2015,05,30,12,41,17.00
2015,05,30,12,42,16.80
2015,05,30,12,43,16.60
2015,05,30,12,44,16.60
2015,05,30,12,45,16.60
2015,05,30,12,46,16.80
2015,05,30,12,47,17.10
2015,05,30,12,48,17.30
2015,05,30,12,49,17.40
2015,05,30,12,50,17.50
2015,05,30,12,51,17.70
2015,05,30,12,52,17.90
2015,05,30,12,53,17.90
2015,05,30,12,54,18.10
2015,05,30,12,55,18.30
2015,05,30,12,56,18.30
2015,05,30,12,57,18.40
2015,05,30,12,58,18.40
2015,05,30,12,59,18.50
2015,05,30,13,00,18.50
2015,05,30,13,01,18.40
2015,05,30,13,02,18.20
2015,05,30,13,03,18.20
2015,05,30,13,04,18.10
2015,05,30,13,05,18.10
2015,05,30,13,06,18.10
2015,05,30,13,07,18.20
2015,05,30,13,08,18.20
2015,05,30,13,09,18.20
2015,05,30,13,10,18.10
2015,05,30,13,11,18.30
2015,05,30,13,12,18.30
2015,05,30,13,13,18.50
2015,05,30,13,14,18.60
2015,05,30,13,15,18.60
2015,05,30,13,16,18.60
2015,05,30,13,17,18.60
2015,05,30,13,18,18.60
2015,05,30,13,19,18.70
2015,05,30,13,20,18.80
2015,05,30,13,21,18.70
2015,05,30,13,22,18.60
2015,05,30,13,23,18.50
2015,05,30,13,24,18.50
2015,05,30,13,25,18.50
2015,05,30,13,26,18.50
2015,05,30,13,27,18.40
2015,05,30,13,28,18.40
2015,05,30,13,29,18.50
2015,05,30,13,30,18.60
2015,05,30,13,31,18.70
2015,05,30,13,32,18.80
2015,05,30,13,33,18.90
2015,05,30,13,34,18.90
2015,05,30,13,35,19.00
2015,05,30,13,36,19.10
2015,05,30,13,37,19.20
2015,05,30,13,38,19.10
2015,05,30,13,39,18.60
2015,05,30,13,40,18.20
2015,05,30,13,41,17.90
2015,05,30,13,42,17.70
2015,05,30,13,43,17.70
2015,05,30,13,44,17.70
2015,05,30,13,45,17.50
2015,05,30,13,46,17.30
2015,05,30,13,47,17.30
2015,05,30,13,48,17.30
2015,05,30,13,49,17.30
2015,05,30,13,50,17.30
2015,05,30,13,51,17.30
2015,05,30,13,52,17.30
2015,05,30,13,53,17.30
2015,05,30,13,54,17.40
2015,05,30,13,55,17.30
2015,05,30,13,56,17.30
2015,05,30,13,57,17.30
2015,05,30,13,58,17.20
2015,05,30,13,59,17.10
2015,05,30,14,00,16.90
2015,05,30,14,01,16.70
2015,05,30,14,02,16.60
2015,05,30,14,03,16.50
2015,05,30,14,04,16.40
2015,05,30,14,05,16.30
2015,05,30,14,06,16.30
2015,05,30,14,07,16.30
2015,05,30,14,08,16.10
2015,05,30,14,09,15.80
2015,05,30,14,10,15.70
2015,05,30,14,11,15.60
2015,05,30,14,12,15.60
2015,05,30,14,13,15.60
2015,05,30,14,14,15.60
2015,05,30,14,15,15.50
2015,05,30,14,16,15.40
2015,05,30,14,17,15.50
2015,05,30,14,18,15.50
2015,05,30,14,19,15.50
2015,05,30,14,20,15.50
2015,05,30,14,21,15.50
2015,05,30,14,22,15.60
2015,05,30,14,23,15.80
2015,05,30,14,24,15.80
2015,05,30,14,25,15.90
2015,05,30,14,26,15.90
2015,05,30,14,27,15.80
2015,05,30,14,28,15.90
2015,05,30,14,29,16.10
2015,05,30,14,30,16.40
2015,05,30,14,31,16.70
2015,05,30,14,32,16.90
2015,05,30,14,33,17.00
2015,05,30,14,34,17.20
2015,05,30,14,35,17.30
2015,05,30,14,36,17.50
2015,05,30,14,37,17.80
2015,05,30,14,38,18.30
2015,05,30,14,39,18.60
2015,05,30,14,40,18.80
2015,05,30,14,41,18.90
2015,05,30,14,42,18.90
2015,05,30,14,43,19.10
2015,05,30,14,44,19.10
2015,05,30,14,45,19.10
2015,05,30,14,46,19.10
2015,05,30,14,47,19.20
2015,05,30,14,48,19.30
2015,05,30,14,49,19.20
2015,05,30,14,50,19.20
2015,05,30,14,51,19.10
2015,05,30,14,52,19.10
2015,05,30,14,53,19.10
2015,05,30,14,54,19.20
2015,05,30,14,55,19.40
2015,05,30,14,56,19.60
2015,05,30,14,57,19.80
2015,05,30,14,58,20.00
2015,05,30,14,59,20.10
2015,05,30,15,00,20.20
2015,05,30,15,01,20.20
2015,05,30,15,02,20.20
2015,05,30,15,03,20.20
2015,05,30,15,04,20.10
2015,05,30,15,05,20.00
2015,05,30,15,06,19.90
2015,05,30,15,07,19.90
2015,05,30,15,08,19.70
2015,05,30,15,09,19.50
2015,05,30,15,10,19.40
2015,05,30,15,11,19.20
2015,05,30,15,12,19.00
2015,05,30,15,13,18.90
2015,05,30,15,14,18.80
2015,05,30,15,15,18.80
2015,05,30,15,16,18.80
2015,05,30,15,17,19.00
2015,05,30,15,18,19.10
2015,05,30,15,19,19.10
2015,05,30,15,20,19.20
2015,05,30,15,21,19.20
2015,05,30,15,22,19.20
2015,05,30,15,23,19.40
2015,05,30,15,24,19.50
2015,05,30,15,25,19.70
2015,05,30,15,26,19.80
2015,05,30,15,27,19.90
2015,05,30,15,28,20.00
2015,05,30,15,29,19.90
2015,05,30,15,30,19.80
2015,05,30,15,31,19.70
2015,05,30,15,32,19.50
2015,05,30,15,33,19.30
2015,05,30,15,34,19.20
2015,05,30,15,35,19.10
2015,05,30,15,36,19.10
2015,05,30,15,37,19.10
2015,05,30,15,38,19.10
2015,05,30,15,39,19.10
2015,05,30,15,40,19.10
2015,05,30,15,41,19.20
2015,05,30,15,42,19.30
2015,05,30,15,43,19.40
2015,05,30,15,44,19.40
2015,05,30,15,45,19.60
2015,05,30,15,46,19.80
2015,05,30,15,47,19.90
2015,05,30,15,48,20.10
2015,05,30,15,49,20.10
2015,05,30,15,50,20.00
2015,05,30,15,51,19.90
2015,05,30,15,52,19.90
2015,05,30,15,53,19.80
2015,05,30,15,54,19.60
2015,05,30,15,55,19.60
2015,05,30,15,56,19.40
2015,05,30,15,57,19.40
2015,05,30,15,58,19.20
2015,05,30,15,59,19.20
2015,05,30,16,00,19.10
2015,05,30,16,01,19.10
2015,05,30,16,02,19.20
2015,05,30,16,03,19.30
2015,05,30,16,04,19.40
2015,05,30,16,05,19.40
2015,05,30,16,06,19.60
2015,05,30,16,07,19.70
2015,05,30,16,08,19.90
2015,05,30,16,09,20.30
2015,05,30,16,10,20.50
2015,05,30,16,11,20.80
2015,05,30,16,12,21.10
2015,05,30,16,13,21.40
2015,05,30,16,14,21.60
2015,05,30,16,15,21.90
2015,05,30,16,16,22.00
2015,05,30,16,17,22.10
2015,05,30,16,18,22.30
2015,05,30,16,19,22.40
2015,05,30,16,20,22.50
2015,05,30,16,21,22.50
2015,05,30,16,22,22.50
2015,05,30,16,23,22.60
2015,05,30,16,24,22.50
2015,05,30,16,25,22.30
2015,05,30,16,26,22.00
2015,05,30,16,27,21.80
2015,05,30,16,28,21.60
2015,05,30,16,29,21.40
2015,05,30,16,30,21.30
2015,05,30,16,31,21.30
2015,05,30,16,32,21.30
2015,05,30,16,33,21.30
2015,05,30,16,34,21.30
2015,05,30,16,35,21.30
2015,05,30,16,36,21.30
2015,05,30,16,37,21.40
2015,05,30,16,38,21.40
2015,05,30,16,39,21.40
2015,05,30,16,40,21.50
2015,05,30,16,41,21.60
2015,05,30,16,42,21.60
2015,05,30,16,43,21.60
2015,05,30,16,44,21.60
2015,05,30,16,45,21.40
2015,05,30,16,46,21.30
2015,05,30,16,47,21.40
2015,05,30,16,48,21.60
2015,05,30,16,49,21.60
2015,05,30,16,50,21.70
2015,05,30,16,51,21.70
2015,05,30,16,52,21.60
2015,05,30,16,53,21.40
2015,05,30,16,54,21.30
2015,05,30,16,55,21.10
2015,05,30,16,56,21.00
2015,05,30,16,57,20.90
2015,05,30,16,58,20.80
2015,05,30,16,59,20.80
2015,05,30,17,00,20.70
2015,05,30,17,01,20.60
2015,05,30,17,02,20.40
2015,05,30,17,03,20.20
2015,05,30,17,04,20.10
2015,05,30,17,05,20.00
2015,05,30,17,06,19.90
2015,05,30,17,07,19.90
2015,05,30,17,08,19.80
2015,05,30,17,09,19.80
2015,05,30,17,10,19.80
2015,05,30,17,11,19.80
2015,05,30,17,12,19.80
2015,05,30,17,13,19.80
2015,05,30,17,14,19.80
2015,05,30,17,15,19.80
2015,05,30,17,16,19.70
2015,05,30,17,17,19.70
2015,05,30,17,18,19.70
2015,05,30,17,19,19.70